Voltar ao catálogo

FENGYUN 1C DEB

AtivoSSO
NORAD 37914·DEBRIS·🇨🇳 China

Lançado May 10, 1999 de Taiyuan Satellite Launch Center

Loading…

Próximas Passagens (próximas 24 horas)

TLE

EnvelhecendoSource: Space-Track

Época: Sep 8, 2026, 05:49 UTC

1 37914U 99025ENP 26251.24246413  .00001126  00000-0  57115-3 0  9993
2 37914  99.2199 258.5885 0066127 314.8721  44.7093 14.17081172660049

Acompanhe FENGYUN 1C DEB em tempo real com AllMySat

Download on the App Store